[[{"header":{"parameterUnit":"m.s-1","parameterCategory":1,"la1":30.2991,"la2":30.254,"lo1":-89.0895,"lo2":-89.0444,"dy":0.0017,"dx":0.0017,"nx":28,"ny":28,"refTime":"2025-03-09T21:00:00:Z","depth":0,"parameterNumber":2,"parameterNumberName":"U-component_of_WINDS"},"data":[0,0,0,0,0,0,0,0,0,0,0,0,0,0,0,0,0,0,0,0,0,0,0,0,0,0,0,0,0,0,0,0,0,0,0,0,0,0,0,0,0,0,0,0,0,0,0,0,0,0,0,0,0,0,0,0,0,0,1.5906,1.5907,0,1.5954,1.5955,1.5955,1.5932,1.5931,1.593,1.5929,1.5978,1.598,1.5982,0,0,0,0,0,0,0,0,0,0,0,0,0,1.5796,1.5798,1.5906,1.5907,1.5907,1.5954,1.5955,1.5955,1.5933,1.5931,1.593,1.5928,1.5977,1.598,1.5983,0,0,0,0,0,0,0,0,0,0,0,0,0,1.5844,1.5799,1.5906,1.5902,1.5902,1.5954,1.5955,1.5955,1.5933,1.5931,1.5929,1.5928,1.5976,1.5979,1.5983,1.6042,0,0,1.5994,1.5996,0,0,0,0,0,0,0,0,1.5841,1.5848,1.5902,1.5902,1.5902,1.5935,1.5934,1.5984,1.5933,1.5921,1.5929,1.5927,1.5965,1.5969,1.5982,1.6044,1.6046,1.5994,1.5997,1.5998,1.5999,0,0,0,0,0,0,0,1.5838,1.5846,1.5925,1.5903,1.5903,1.5898,1.5902,1.5943,1.5953,1.5922,1.5921,1.5926,1.5965,1.5979,1.5983,1.6047,1.5994,1.5998,1.6,1.6001,1.6161,1.6163,0,0,0,0,0,0,1.5835,1.5843,1.5924,1.5927,1.5867,1.5901,1.5906,1.5927,1.5952,1.5954,1.5928,1.5925,1.5974,1.5979,1.5985,1.6057,1.5998,1.6002,1.6004,1.6159,1.6162,1.6164,0,0,0,0,0,0,1.5833,1.5842,1.5922,1.5885,1.5894,1.5905,1.5928,1.5929,1.5943,1.5957,1.5958,1.5941,1.5972,1.598,1.6028,1.6058,1.6003,1.6007,1.6157,1.616,1.6163,1.62,0,0,0,0,0,0,1.583,1.5842,1.5864,1.5885,1.5896,1.5964,1.593,1.5931,1.5949,1.5946,1.5969,1.5971,1.5972,1.6023,1.6032,1.6062,1.6009,1.6154,1.6158,1.6162,1.6196,1.6204,1.6211,0,0,0,0,0,1.5826,1.5872,1.5865,1.5875,1.5924,1.5966,1.5972,1.5972,1.5951,1.5974,1.5983,1.597,1.6053,1.6028,1.6038,1.607,1.6152,1.6157,1.6162,1.6193,1.6203,1.6211,0,0,0,0,0,0,1.5853,1.5875,1.5867,1.5922,1.5942,1.5962,1.599,1.5982,1.6008,1.6004,1.6003,1.6008,1.6059,1.6069,1.604,1.6129,1.61,1.6107,1.612,1.6129,1.6137,1.6133,1.6012,0,0,0,0,0,1.5866,1.5898,1.5915,1.5961,1.5972,1.598,1.5997,1.5996,1.6017,1.6025,1.6038,1.6059,1.609,1.611,1.6139,1.6198,1.6203,1.6225,1.6232,1.6238,1.6244,1.6276,1.6287,1.6179,1.6179,1.6179,0,0,1.5892,1.5907,1.5927,1.5967,1.5983,1.6016,1.5987,1.6023,1.6048,1.6031,1.6077,1.6088,1.6111,1.6165,1.619,1.6175,1.6275,1.6244,1.6248,1.6251,1.6282,1.6292,1.6301,1.6182,1.6182,1.6181,0,0,1.5956,1.5971,1.6012,1.6029,1.6053,1.6058,1.6068,1.6089,1.6096,1.6143,1.6131,1.616,1.6213,1.6231,1.6247,1.632,1.6309,1.633,1.6367,1.6399,1.6408,1.6415,1.6442,1.6452,1.6335,1.6336,1.6336,0,1.5985,1.6035,1.6034,1.6072,1.609,1.6076,1.6118,1.6134,1.6167,1.618,1.6164,1.6231,1.6246,1.6304,1.6322,1.6335,1.6347,1.6327,1.6407,1.6414,1.6421,1.6447,1.6457,1.6338,1.6338,1.6337,1.6337,0,1.607,1.6105,1.6135,1.6168,1.6189,1.6229,1.6234,1.6257,1.6253,1.626,1.6309,1.6326,1.6359,1.6373,1.637,1.6432,1.6422,1.6407,1.6377,1.6434,1.6458,1.6468,1.6341,1.634,1.634,1.6339,0,0,1.6153,1.6185,1.6196,1.6211,1.6238,1.6265,1.6304,1.6337,1.6356,1.638,1.6413,1.6459,1.6445,1.6463,1.6462,1.649,1.6548,1.6471,1.6471,1.6485,1.6618,1.663,1.6642,1.6541,1.6543,1.6544,1.6617,0,1.622,1.6289,1.629,1.6353,1.6386,1.6374,1.6409,1.6429,1.6437,1.6466,1.6475,1.6508,1.6486,1.6497,1.6525,1.6535,1.6575,1.653,1.6573,1.6574,1.6567,1.6654,1.6666,1.6734,1.6626,1.6627,1.6629,0,1.6307,1.6334,1.6401,1.6424,1.6437,1.6468,1.6499,1.6527,1.655,1.6554,1.6575,1.657,1.6611,1.6581,1.6637,1.6607,1.6625,1.6632,1.6635,1.6639,1.6605,1.6661,1.6755,1.6765,1.6643,1.6642,1.6641,0,1.6361,1.6414,1.6461,1.6474,1.6502,1.6524,1.6537,1.6558,1.6578,1.6605,1.6618,1.665,1.6667,1.6692,1.6695,1.6673,1.6753,1.6723,1.6758,1.6758,1.6775,1.6774,1.6874,1.6786,1.6786,1.6786,1.6785,0,1.6436,1.6477,1.6486,1.6515,1.6562,1.6563,1.6609,1.662,1.6639,1.6671,1.6663,1.6692,1.6695,1.6726,1.673,1.6777,1.6784,1.6789,1.6789,1.679,1.6789,1.6801,1.6797,1.6788,1.6788,1.6787,1.6787,0,1.6504,1.6511,1.6562,1.6585,1.6592,1.6625,1.6645,1.6673,1.668,1.672,1.673,1.6742,1.6778,1.6784,1.6826,1.6829,1.6885,1.6881,1.6877,1.6877,1.6912,1.6909,1.7023,1.7038,1.6941,1.6941,1.6942,0,1.6551,1.6583,1.661,1.663,1.6644,1.6677,1.6698,1.6701,1.6723,1.6752,1.6777,1.6812,1.6841,1.6899,1.6912,1.6944,1.6941,1.6979,1.6945,1.6945,1.6942,1.694,1.6944,1.6985,1.6986,1.6987,1.6988,0,1.6635,1.6637,1.6667,1.6699,1.6724,1.675,1.6773,1.6791,1.6797,1.6822,1.6859,1.6881,1.6925,1.696,1.6993,1.7006,1.6998,1.6998,1.7008,1.7009,1.7006,1.7008,1.6895,1.6995,1.6994,1.6994,1.6993,1.6993,1.6694,1.6723,1.6746,1.678,1.6799,1.6821,1.6849,1.6861,1.6892,1.6928,1.6928,1.6968,1.6992,1.7035,1.7051,1.7083,1.7071,1.7085,1.7089,1.7092,1.7096,1.7001,1.7089,1.7089,1.7089,1.7088,1.7088,0,1.6778,1.6793,1.6824,1.6858,1.6885,1.6876,1.6902,1.6926,1.6962,1.6984,1.7013,1.7056,1.7091,1.7106,1.7141,1.7164,1.7161,1.7172,1.7171,1.7174,1.7105,1.7093,1.7174,1.7174,1.7174,1.7174,1.7174,1.7174,1.6824,1.6872,1.6877,1.6935,1.6949,1.6989,1.7005,1.7026,1.7045,1.7093,1.7122,1.7132,1.7153,1.7189,1.722,1.7224,1.7237,1.7251,1.7253,1.7188,1.7179,1.7171,1.716,1.7254,1.7254,1.732,1.7321,1.7321]},{"header":{"parameterUnit":"m.s-1","parameterCategory":1,"la1":30.2991,"la2":30.254,"lo1":-89.0895,"lo2":-89.0444,"dy":0.0017,"dx":0.0017,"nx":28,"ny":28,"refTime":"2025-03-09T21:00:00:Z","depth":0,"parameterNumber":3,"parameterNumberName":"V-component_of_WINDS"},"data":[0,0,0,0,0,0,0,0,0,0,0,0,0,0,0,0,0,0,0,0,0,0,0,0,0,0,0,0,0,0,0,0,0,0,0,0,0,0,0,0,0,0,0,0,0,0,0,0,0,0,0,0,0,0,0,0,0,0,-2.1316,-2.1317,0,-2.1442,-2.1444,-2.1445,-2.1451,-2.145,-2.1448,-2.1447,-2.1577,-2.1582,-2.1586,0,0,0,0,0,0,0,0,0,0,0,0,0,-2.1081,-2.1085,-2.1316,-2.1317,-2.1319,-2.1442,-2.1444,-2.1445,-2.1451,-2.145,-2.1448,-2.1446,-2.1575,-2.1581,-2.1587,0,0,0,0,0,0,0,0,0,0,0,0,0,-2.1192,-2.1086,-2.1315,-2.1337,-2.134,-2.1442,-2.1444,-2.1446,-2.1452,-2.145,-2.1447,-2.1445,-2.1573,-2.158,-2.1588,-2.1677,0,0,-2.161,-2.1613,0,0,0,0,0,0,0,0,-2.1186,-2.1201,-2.1332,-2.1335,-2.1339,-2.1429,-2.1409,-2.1523,-2.1452,-2.1409,-2.1447,-2.1444,-2.1529,-2.154,-2.1569,-2.1683,-2.1689,-2.1611,-2.1615,-2.1618,-2.162,0,0,0,0,0,0,0,-2.1178,-2.1196,-2.1366,-2.1334,-2.1338,-2.134,-2.1354,-2.143,-2.148,-2.1413,-2.1414,-2.1428,-2.1531,-2.1562,-2.1572,-2.1691,-2.161,-2.1617,-2.1621,-2.1624,-2.1886,-2.1889,0,0,0,0,0,0,-2.1166,-2.1189,-2.1362,-2.137,-2.1256,-2.1346,-2.1361,-2.1402,-2.1479,-2.1489,-2.143,-2.1428,-2.155,-2.1563,-2.1576,-2.1687,-2.1618,-2.1625,-2.1629,-2.1884,-2.1887,-2.189,0,0,0,0,0,0,-2.1161,-2.1182,-2.1357,-2.128,-2.1302,-2.1353,-2.1398,-2.1406,-2.1437,-2.1493,-2.1502,-2.1452,-2.1549,-2.1566,-2.1652,-2.1692,-2.1628,-2.1635,-2.1881,-2.1885,-2.1888,-2.1909,0,0,0,0,0,0,-2.1154,-2.118,-2.1214,-2.128,-2.1306,-2.143,-2.1401,-2.141,-2.1449,-2.1448,-2.1516,-2.1525,-2.1549,-2.1641,-2.166,-2.1701,-2.164,-2.1877,-2.1883,-2.1887,-2.1905,-2.1913,-2.192,0,0,0,0,0,-2.1146,-2.1214,-2.1216,-2.1236,-2.135,-2.1432,-2.1447,-2.1473,-2.1452,-2.1487,-2.1523,-2.1523,-2.1684,-2.165,-2.1671,-2.1714,-2.1875,-2.1881,-2.1887,-2.1901,-2.1911,-2.192,0,0,0,0,0,0,-2.1151,-2.1223,-2.1226,-2.1317,-2.1369,-2.1433,-2.1478,-2.1482,-2.154,-2.1537,-2.1566,-2.1582,-2.1667,-2.17,-2.166,-2.1806,-2.1778,-2.1788,-2.1782,-2.1791,-2.1799,-2.1789,-2.1646,0,0,0,0,0,-2.1163,-2.1223,-2.1283,-2.1359,-2.1384,-2.1427,-2.1464,-2.1479,-2.1533,-2.1555,-2.1598,-2.1651,-2.1714,-2.1754,-2.1815,-2.1909,-2.1925,-2.195,-2.1957,-2.1963,-2.1972,-2.2025,-2.2037,-2.1909,-2.1909,-2.1909,0,0,-2.1188,-2.1235,-2.1271,-2.1361,-2.1402,-2.1465,-2.1445,-2.1512,-2.1559,-2.1565,-2.1649,-2.1682,-2.1744,-2.1835,-2.1877,-2.1864,-2.2011,-2.1971,-2.1975,-2.198,-2.2032,-2.2045,-2.2055,-2.1913,-2.1912,-2.1912,0,0,-2.1265,-2.1307,-2.1374,-2.1417,-2.148,-2.1508,-2.1524,-2.1588,-2.1611,-2.1695,-2.1702,-2.1759,-2.1866,-2.191,-2.1946,-2.2042,-2.2044,-2.2061,-2.21,-2.2152,-2.2162,-2.2171,-2.2206,-2.2218,-2.2069,-2.2069,-2.2069,0,-2.1289,-2.1383,-2.1409,-2.1476,-2.1516,-2.1525,-2.1594,-2.1634,-2.1714,-2.1741,-2.1726,-2.1862,-2.1904,-2.2005,-2.2029,-2.2058,-2.2078,-2.2053,-2.2158,-2.2168,-2.2176,-2.221,-2.2223,-2.2071,-2.2071,-2.207,-2.207,0,-2.1408,-2.1474,-2.1521,-2.1598,-2.1643,-2.1711,-2.1748,-2.179,-2.1802,-2.1832,-2.1919,-2.197,-2.2042,-2.2067,-2.2079,-2.2171,-2.2161,-2.2152,-2.2124,-2.219,-2.2222,-2.2235,-2.2073,-2.2073,-2.2072,-2.2072,0,0,-2.1492,-2.1583,-2.16,-2.1636,-2.1707,-2.1758,-2.1827,-2.1897,-2.1934,-2.1989,-2.2048,-2.2139,-2.2131,-2.2172,-2.2189,-2.2235,-2.2309,-2.222,-2.2222,-2.2235,-2.2414,-2.2421,-2.2435,-2.231,-2.2313,-2.2315,-2.2409,0,-2.1578,-2.17,-2.1726,-2.1832,-2.1893,-2.1903,-2.1963,-2.2014,-2.2044,-2.21,-2.2134,-2.2198,-2.2182,-2.2207,-2.2253,-2.229,-2.2345,-2.2283,-2.2366,-2.2369,-2.2351,-2.2452,-2.246,-2.2546,-2.2422,-2.2424,-2.2426,0,-2.1694,-2.1752,-2.1864,-2.1928,-2.1954,-2.2008,-2.2075,-2.2129,-2.2187,-2.2206,-2.2252,-2.2265,-2.2338,-2.2306,-2.2408,-2.2365,-2.2401,-2.2424,-2.2428,-2.2437,-2.2401,-2.2464,-2.2574,-2.2587,-2.2445,-2.2444,-2.2442,0,-2.1744,-2.1851,-2.1932,-2.1962,-2.2038,-2.2076,-2.2109,-2.2165,-2.2206,-2.2265,-2.2292,-2.2358,-2.2395,-2.2447,-2.2477,-2.2452,-2.2577,-2.2548,-2.2595,-2.2594,-2.2621,-2.2619,-2.2738,-2.2643,-2.2643,-2.2643,-2.2642,0,-2.1837,-2.1906,-2.1955,-2.2005,-2.2082,-2.2112,-2.2188,-2.2221,-2.2271,-2.2328,-2.2341,-2.2395,-2.2432,-2.2491,-2.2515,-2.2596,-2.2612,-2.263,-2.2636,-2.2629,-2.2627,-2.2653,-2.2648,-2.2646,-2.2645,-2.2645,-2.2644,0,-2.1907,-2.1943,-2.2032,-2.2097,-2.2115,-2.2169,-2.2226,-2.2275,-2.2305,-2.2377,-2.2396,-2.2444,-2.2515,-2.255,-2.2638,-2.2654,-2.2746,-2.2748,-2.2726,-2.2728,-2.2774,-2.2769,-2.2915,-2.2936,-2.2826,-2.2827,-2.2828,0,-2.1964,-2.2017,-2.2088,-2.2127,-2.2162,-2.2224,-2.2266,-2.2298,-2.2342,-2.2412,-2.2453,-2.2524,-2.2582,-2.2694,-2.2737,-2.2805,-2.2809,-2.2855,-2.2819,-2.2811,-2.2811,-2.2807,-2.2813,-2.2862,-2.2863,-2.2863,-2.2864,0,-2.2062,-2.2077,-2.2137,-2.2204,-2.2254,-2.2308,-2.2361,-2.2393,-2.2433,-2.2482,-2.2554,-2.2599,-2.2689,-2.2759,-2.283,-2.2865,-2.2872,-2.2875,-2.289,-2.2884,-2.2869,-2.2879,-2.2744,-2.2872,-2.2871,-2.287,-2.287,-2.287,-2.2127,-2.2175,-2.2233,-2.23,-2.2343,-2.2393,-2.2443,-2.248,-2.2541,-2.2616,-2.2631,-2.2708,-2.2766,-2.2861,-2.2899,-2.296,-2.295,-2.2971,-2.2977,-2.2981,-2.2984,-2.2859,-2.2973,-2.2973,-2.2973,-2.2972,-2.2972,0,-2.2227,-2.2265,-2.2326,-2.24,-2.2453,-2.2454,-2.2514,-2.2558,-2.2625,-2.2679,-2.2736,-2.282,-2.2888,-2.2937,-2.3008,-2.3047,-2.3052,-2.3064,-2.3062,-2.307,-2.2988,-2.2969,-2.3059,-2.3059,-2.3059,-2.3059,-2.3059,-2.3059,-2.2284,-2.2366,-2.2388,-2.2492,-2.2529,-2.2604,-2.2638,-2.2685,-2.2728,-2.282,-2.2877,-2.2909,-2.2961,-2.3035,-2.3099,-2.3112,-2.3137,-2.315,-2.3163,-2.3085,-2.3076,-2.3067,-2.3049,-2.3155,-2.3155,-2.324,-2.3241,-2.3241]}]]